Portada
METAR-TAF:

METAR-TAF

Aeropuertos :

Harlan Municipal Airport

Harlan, Iowa, Estados Unidos

latitud: 41-35-04N, longitud: 095-20-23W, altitud: 375 m

Observación

El informe se hizo hace 15 minutos, a las 06:15 UTC
Viento 12 kt del sur-sureste con ráfagas de 19 kt
Temperatura 26°C
Humedad 74%
Presión 1012 hPa
Visibilidad: 16.1 km
Cielo despejado

METAR: KHNR 070615Z AUTO 16012G19KT 10SM CLR 26/21 A2989 RMK AO2

Hora: 01:30 (06:30 UTC)


TAF: falta

Observaciones y pronósticos meteorológicos de más de 4000 aeropuertos (mensajes METAR y TAF).

Los puntos amarillos y rojos representan las estaciones disponibles.

Ponga el ratón en el punto deseado para ver el nombre de la estación.

Haga clic para ver las observaciones y los pronósticos meteorológicos.

Para cambiar el mapa : haga clic en los botones verdes con una cruz de color negro para hacer un zoom, en el botón verde con un guión para alejar o en las flechas verdes para mapas adyacentes.


METAR-TAF: